| time (UTC) | temp F | wind direction | speed MPH | gust MPH | rain 1hr in | rain 24hr in | rain mn in | humidity % | barometer mb |
| 20260905233011 | 55 | 315 | 3.0 | 9.0 | 0.00 | 0.00 | 0.00 | 95 | 1009.0 |
| 20260905231009 | 55 | 302 | 3.0 | 8.0 | 0.00 | 0.00 | 0.00 | 95 | 1008.0 |
| 20260905225005 | 55 | 315 | 3.0 | 7.0 | 0.00 | 0.00 | 0.00 | 94 | 1008.0 |
| 20260905221007 | 55 | 300 | 3.0 | 6.0 | 0.00 | 0.00 | 0.00 | 93 | 1008.0 |
| 20260905220007 | 55 | 292 | 3.0 | 6.0 | 0.00 | 0.00 | 0.00 | 93 | 1008.0 |
| 20260905215004 | 55 | 295 | 4.0 | 10.0 | 0.00 | 0.00 | 0.00 | 93 | 1008.0 |
| 20260905200003 | 55 | 281 | 3.0 | 8.0 | 0.00 | 0.00 | 0.00 | 93 | 1008.0 |
| 20260905195005 | 55 | 246 | 1.0 | 4.0 | 0.00 | 0.00 | 0.00 | 92 | 1009.0 |
| 20260905172004 | 58 | 222 | 2.0 | 5.0 | 0.00 | 0.00 | 0.00 | 91 | 1009.0 |
| 20260905153009 | 61 | 346 | 6.0 | 16.0 | 0.00 | 0.00 | 0.00 | 81 | 1008.0 |
| 20260905151005 | 61 | 16 | 2.0 | 4.0 | 0.00 | 0.00 | 0.00 | 81 | 1007.0 |
| 20260905143009 | 62 | 45 | 2.0 | 5.0 | 0.00 | 0.00 | 0.00 | 82 | 1007.0 |
| 20260905141005 | 64 | 62 | 3.0 | 9.0 | 0.00 | 0.00 | 0.00 | 76 | 1007.0 |
| 20260905131003 | 67 | 336 | 5.0 | 13.0 | 0.00 | 0.00 | 0.00 | 63 | 1006.0 |
| 20260905120007 | 66 | 343 | 4.0 | 12.0 | 0.00 | 0.00 | 0.00 | 71 | 1006.0 |
| 20260905115006 | 66 | 57 | 4.0 | 13.0 | 0.00 | 0.00 | 0.00 | 71 | 1006.0 |
| 20260905105003 | 67 | 345 | 5.0 | 15.0 | 0.00 | 0.00 | 0.00 | 66 | 1006.0 |
| 20260905095004 | 65 | 328 | 4.0 | 14.0 | 0.00 | 0.00 | 0.00 | 69 | 1006.0 |
| 20260905094003 | 65 | 305 | 5.0 | 14.0 | 0.00 | 0.00 | 0.00 | 70 | 1006.0 |
| 20260905091006 | 65 | 298 | 4.0 | 11.0 | 0.00 | 0.00 | 0.00 | 71 | 1005.0 |
| 20260905072006 | 63 | 16 | 3.0 | 8.0 | 0.00 | 0.00 | 0.00 | 73 | 1004.0 |
| 20260905035008 | 62 | 301 | 4.0 | 10.0 | 0.00 | 0.00 | 0.00 | 92 | 1000.0 |
| 20260905012007 | 65 | 302 | 4.0 | 11.0 | 0.00 | 0.00 | 0.00 | 84 | 999.0 |